SWA2761 KLAX-KOAK

Flight info

Callsign SWA2761
Flight time N/A
Altitude 34000
Route LADYJ4 COREZ RGOOD EMZOH4
Aircraft B38M/M-SDE1FGHILORVWXY/HB1

Departure

Time 2026-05-05 04:38
Airport Los Angeles International Airport (KLAX)

Arrival

Time N/A
Airport San Francisco Bay Oakland International Airport (KOAK)
Time Latitude Longitude Altitude Speed Heading
2026-05-05 04:16 33.94724 -118.40202 128 ft 0 kts 83°
2026-05-05 04:25 33.94723 -118.40216 123 ft 3 kts 90°
2026-05-05 04:25 33.94720 -118.40239 125 ft 3 kts 64°
2026-05-05 04:25 33.94709 -118.40256 124 ft 3 kts 33°
2026-05-05 04:25 33.94692 -118.40265 124 ft 3 kts
2026-05-05 04:26 33.94688 -118.40265 124 ft 0 kts 355°
2026-05-05 04:32 33.94719 -118.40262 123 ft 13 kts
2026-05-05 04:33 33.94749 -118.40262 124 ft 0 kts 355°
2026-05-05 04:34 33.94782 -118.40269 127 ft 0 kts 345°
2026-05-05 04:35 33.94783 -118.40269 127 ft 1 kts 345°
2026-05-05 04:35 33.94845 -118.40288 125 ft 11 kts 346°
2026-05-05 04:35 33.94902 -118.40231 124 ft 13 kts 77°
2026-05-05 04:35 33.94913 -118.40110 128 ft 16 kts 83°
2026-05-05 04:36 33.94931 -118.39966 128 ft 18 kts 73°
2026-05-05 04:36 33.94944 -118.39941 128 ft 0 kts 46°
2026-05-05 04:37 33.94990 -118.39927 127 ft 16 kts
2026-05-05 04:37 33.95033 -118.40033 126 ft 33 kts 263°
2026-05-05 04:38 33.94967 -118.40688 128 ft 122 kts 263°
2026-05-05 04:38 33.94845 -118.41941 444 ft 164 kts 262°
2026-05-05 04:38 33.94698 -118.43285 1704 ft 152 kts 263°
2026-05-05 04:38 33.94573 -118.44487 2756 ft 140 kts 263°
2026-05-05 04:39 33.94451 -118.45715 3102 ft 157 kts 263°
2026-05-05 04:39 33.94362 -118.47135 3275 ft 184 kts 267°
2026-05-05 04:39 33.94303 -118.48780 3640 ft 212 kts 267°
2026-05-05 04:39 33.94220 -118.50664 4095 ft 237 kts 265°
2026-05-05 04:40 33.94064 -118.52720 4688 ft 256 kts 264°
2026-05-05 04:40 33.93897 -118.54900 5582 ft 256 kts 264°
2026-05-05 04:40 33.93736 -118.57034 6867 ft 260 kts 264°
2026-05-05 04:40 33.93568 -118.59256 7722 ft 272 kts 264°
2026-05-05 04:41 33.93567 -118.61532 7972 ft 274 kts 280°
2026-05-05 04:41 33.94355 -118.63611 7994 ft 277 kts 307°
2026-05-05 04:41 33.95827 -118.65122 8007 ft 282 kts 326°
2026-05-05 04:41 33.97497 -118.66379 8574 ft 282 kts 325°
2026-05-05 04:42 33.99250 -118.67405 9670 ft 290 kts 344°
2026-05-05 04:42 34.01300 -118.67566 10541 ft 305 kts
2026-05-05 04:42 34.03484 -118.67440 11107 ft 325 kts
2026-05-05 04:42 34.05808 -118.67303 11702 ft 343 kts
2026-05-05 04:43 34.08229 -118.67072 12424 ft 356 kts
2026-05-05 04:43 34.10688 -118.66453 13274 ft 362 kts
2026-05-05 04:43 34.12330 -118.66052 13854 ft 366 kts
2026-05-05 04:43 34.14858 -118.65456 14583 ft 373 kts
2026-05-05 04:44 34.17430 -118.64862 15336 ft 379 kts
2026-05-05 04:44 34.20039 -118.64267 16067 ft 384 kts
2026-05-05 04:44 34.22685 -118.63671 16797 ft 389 kts
2026-05-05 04:44 34.25364 -118.63623 17503 ft 384 kts 346°
2026-05-05 04:45 34.28017 -118.64157 18186 ft 389 kts 344°
2026-05-05 04:45 34.30694 -118.64724 18830 ft 393 kts 343°
2026-05-05 04:45 34.33395 -118.65315 19463 ft 396 kts 343°
2026-05-05 04:45 34.36116 -118.65926 20095 ft 399 kts 342°
2026-05-05 04:46 34.38855 -118.66548 20746 ft 402 kts 342°
2026-05-05 04:46 34.41609 -118.67218 21309 ft 403 kts 336°
2026-05-05 04:46 34.44123 -118.68565 21845 ft 393 kts 322°
2026-05-05 04:46 34.46521 -118.70207 22430 ft 398 kts 322°
2026-05-05 04:47 34.48932 -118.71868 23022 ft 400 kts 322°
2026-05-05 04:47 34.51361 -118.73563 23598 ft 404 kts 321°
2026-05-05 04:47 34.53795 -118.75277 24098 ft 406 kts 321°
2026-05-05 04:47 34.56250 -118.77012 24607 ft 409 kts 321°
2026-05-05 04:48 34.58720 -118.78759 25038 ft 413 kts 320°
2026-05-05 04:48 34.61208 -118.80520 25476 ft 415 kts 320°
2026-05-05 04:48 34.63708 -118.82291 25998 ft 417 kts 320°
2026-05-05 04:48 34.66225 -118.84075 26373 ft 421 kts 320°
2026-05-05 04:49 34.68763 -118.85875 26797 ft 424 kts 320°
2026-05-05 04:49 34.71317 -118.87690 27214 ft 426 kts 320°
2026-05-05 04:49 34.73856 -118.89493 27645 ft 429 kts 320°
2026-05-05 04:49 34.76438 -118.91328 28056 ft 432 kts 320°
2026-05-05 04:50 34.79041 -118.93181 28495 ft 434 kts 320°
2026-05-05 04:50 34.81653 -118.95045 28916 ft 436 kts 320°
2026-05-05 04:50 34.84281 -118.96921 29309 ft 440 kts 320°
2026-05-05 04:50 34.86930 -118.98813 29697 ft 442 kts 320°
2026-05-05 04:51 34.89591 -119.00716 30133 ft 445 kts 320°
2026-05-05 04:51 34.92269 -119.02633 30475 ft 447 kts 319°
2026-05-05 04:51 34.94955 -119.04556 30860 ft 448 kts 319°
2026-05-05 04:51 34.97640 -119.06479 31221 ft 448 kts 318°
2026-05-05 04:52 35.00338 -119.08414 31628 ft 448 kts 317°
2026-05-05 04:52 35.03033 -119.10345 31986 ft 450 kts 317°
2026-05-05 04:52 35.05723 -119.12275 32464 ft 447 kts 317°
2026-05-05 04:52 35.08393 -119.14191 33015 ft 443 kts 316°
2026-05-05 04:53 35.11040 -119.16092 33603 ft 438 kts 315°
2026-05-05 04:53 35.13664 -119.17981 33994 ft 437 kts 315°
2026-05-05 04:53 35.16273 -119.19857 34020 ft 432 kts 315°
2026-05-05 04:54 35.21409 -119.23559 33987 ft 429 kts 314°
2026-05-05 04:54 35.26556 -119.27274 33993 ft 429 kts 315°
2026-05-05 04:55 35.31703 -119.30994 33989 ft 429 kts 314°
2026-05-05 04:55 35.36838 -119.34712 33990 ft 429 kts 314°
2026-05-05 04:56 35.41972 -119.38433 33988 ft 429 kts 315°
2026-05-05 04:56 35.47110 -119.42163 33997 ft 430 kts 315°
2026-05-05 04:57 35.52260 -119.45907 33998 ft 430 kts 315°
2026-05-05 04:57 35.57166 -119.49932 34009 ft 413 kts 307°
2026-05-05 04:58 35.61618 -119.54458 33996 ft 416 kts 307°
2026-05-05 04:58 35.66078 -119.59008 34000 ft 417 kts 307°
2026-05-05 04:59 35.70547 -119.63577 34001 ft 418 kts 307°
2026-05-05 04:59 35.74997 -119.68134 34002 ft 419 kts 307°
2026-05-05 05:00 35.79487 -119.72739 33999 ft 420 kts 307°
2026-05-05 05:00 35.82845 -119.76188 34002 ft 421 kts 307°
2026-05-05 05:01 35.87347 -119.80818 33997 ft 421 kts 307°
2026-05-05 05:01 35.91734 -119.85556 34005 ft 414 kts 303°
2026-05-05 05:02 35.95885 -119.90524 34009 ft 416 kts 304°
2026-05-05 05:02 36.00070 -119.95480 34014 ft 417 kts 304°
2026-05-05 05:03 36.04264 -120.00445 34012 ft 418 kts 304°
2026-05-05 05:03 36.08456 -120.05416 34021 ft 418 kts 304°
2026-05-05 05:04 36.12652 -120.10398 34027 ft 418 kts 304°
2026-05-05 05:04 36.16846 -120.15386 34021 ft 418 kts 304°
2026-05-05 05:05 36.21042 -120.20384 34029 ft 419 kts 304°
2026-05-05 05:05 36.25252 -120.25407 34025 ft 420 kts 304°
2026-05-05 05:06 36.29459 -120.30433 34031 ft 421 kts 304°
2026-05-05 05:06 36.33651 -120.35450 34029 ft 421 kts 304°
2026-05-05 05:07 36.37896 -120.40539 34027 ft 423 kts 304°
2026-05-05 05:07 36.42103 -120.45590 34039 ft 423 kts 304°
2026-05-05 05:08 36.46339 -120.50683 34036 ft 424 kts 304°
2026-05-05 05:08 36.50576 -120.55786 34030 ft 424 kts 304°
2026-05-05 05:09 36.54892 -120.60787 33556 ft 422 kts 307°
2026-05-05 05:09 36.57078 -120.63192 32974 ft 417 kts 307°
2026-05-05 05:09 36.59232 -120.65578 32412 ft 413 kts 308°
2026-05-05 05:09 36.61404 -120.67996 31570 ft 425 kts 309°
2026-05-05 05:10 36.63628 -120.70472 30726 ft 432 kts 310°
2026-05-05 05:10 36.65883 -120.72983 29857 ft 439 kts 311°
2026-05-05 05:10 36.68174 -120.75535 29078 ft 444 kts 313°
2026-05-05 05:10 36.70481 -120.78107 28461 ft 446 kts 313°
2026-05-05 05:11 36.72781 -120.80674 28203 ft 437 kts 313°
2026-05-05 05:11 36.75006 -120.83161 27980 ft 424 kts 314°
2026-05-05 05:11 36.77177 -120.85584 27651 ft 414 kts 314°
2026-05-05 05:11 36.79332 -120.87967 27001 ft 414 kts 315°
2026-05-05 05:12 36.81481 -120.90346 26489 ft 411 kts 315°
2026-05-05 05:12 36.83609 -120.92704 25989 ft 408 kts 316°
2026-05-05 05:12 36.85726 -120.95055 25465 ft 406 kts 316°
2026-05-05 05:12 36.87832 -120.97394 24954 ft 404 kts 317°
2026-05-05 05:13 36.89927 -120.99721 24448 ft 403 kts 318°
2026-05-05 05:13 36.92020 -121.02048 23943 ft 402 kts 319°
2026-05-05 05:13 36.94110 -121.04374 23405 ft 402 kts 319°
2026-05-05 05:13 36.96194 -121.06697 22849 ft 401 kts 319°
2026-05-05 05:14 36.98266 -121.09008 22352 ft 398 kts 319°
2026-05-05 05:14 37.00322 -121.11301 21883 ft 395 kts 319°
2026-05-05 05:14 37.02366 -121.13582 21415 ft 392 kts 319°
2026-05-05 05:14 37.04394 -121.15848 20955 ft 390 kts 319°
2026-05-05 05:15 37.06410 -121.18103 20502 ft 387 kts 319°
2026-05-05 05:15 37.08413 -121.20344 20064 ft 385 kts 319°
2026-05-05 05:15 37.10406 -121.22575 19615 ft 383 kts 319°
2026-05-05 05:15 37.12384 -121.24791 19180 ft 381 kts 318°
2026-05-05 05:16 37.14090 -121.26753 18456 ft 389 kts 317°
2026-05-05 05:16 37.16086 -121.29077 17767 ft 392 kts 317°
2026-05-05 05:16 37.18090 -121.31406 17068 ft 394 kts 317°
2026-05-05 05:16 37.20110 -121.33752 16346 ft 397 kts 317°
2026-05-05 05:17 37.22141 -121.36111 15575 ft 400 kts 317°
2026-05-05 05:17 37.24187 -121.38491 14819 ft 399 kts 317°
2026-05-05 05:17 37.26190 -121.40820 14128 ft 386 kts 316°
2026-05-05 05:17 37.28108 -121.43054 13402 ft 376 kts 316°
2026-05-05 05:18 37.29915 -121.45159 12706 ft 367 kts 316°
2026-05-05 05:18 37.31759 -121.47310 12039 ft 357 kts 316°
2026-05-05 05:18 37.33558 -121.49409 11400 ft 348 kts 316°
2026-05-05 05:18 37.35317 -121.51463 10772 ft 341 kts 316°
2026-05-05 05:19 37.37032 -121.53466 10163 ft 333 kts 316°
2026-05-05 05:19 37.38724 -121.55408 9659 ft 325 kts 317°
2026-05-05 05:19 37.40371 -121.57287 9236 ft 313 kts 316°
2026-05-05 05:19 37.41949 -121.59092 8868 ft 301 kts 316°
2026-05-05 05:20 37.43473 -121.60838 8502 ft 291 kts 317°
2026-05-05 05:20 37.44783 -121.62699 8110 ft 280 kts 303°
2026-05-05 05:20 37.45879 -121.64672 7803 ft 269 kts 304°
2026-05-05 05:20 37.46940 -121.66558 7512 ft 260 kts 304°
2026-05-05 05:21 37.47974 -121.68386 7179 ft 253 kts 304°
2026-05-05 05:21 37.48969 -121.70135 6951 ft 237 kts 304°
2026-05-05 05:21 37.49918 -121.71801 6773 ft 233 kts 304°
2026-05-05 05:21 37.50858 -121.73452 6564 ft 231 kts 304°
2026-05-05 05:22 37.51796 -121.75099 6340 ft 231 kts 304°
2026-05-05 05:22 37.52718 -121.76741 6182 ft 229 kts 300°
2026-05-05 05:22 37.53220 -121.78599 5986 ft 223 kts 276°
2026-05-05 05:22 37.53472 -121.80532 5857 ft 224 kts 276°
2026-05-05 05:23 37.53716 -121.82461 5705 ft 222 kts 276°
2026-05-05 05:23 37.53951 -121.84356 5530 ft 221 kts 276°
2026-05-05 05:23 37.54179 -121.86264 5406 ft 220 kts 275°
2026-05-05 05:23 37.54403 -121.88162 5254 ft 219 kts 276°
2026-05-05 05:24 37.54625 -121.90054 5079 ft 217 kts 276°
2026-05-05 05:24 37.54845 -121.91930 4932 ft 215 kts 276°
2026-05-05 05:24 37.55063 -121.93791 4802 ft 214 kts 275°
2026-05-05 05:24 37.55280 -121.95647 4645 ft 213 kts 275°
2026-05-05 05:25 37.55494 -121.97488 4488 ft 211 kts 276°
2026-05-05 05:25 37.55744 -121.99309 4343 ft 212 kts 285°
2026-05-05 05:25 37.56479 -122.00915 4086 ft 213 kts 306°
2026-05-05 05:25 37.57414 -122.02355 3842 ft 212 kts 307°
2026-05-05 05:26 37.58358 -122.03767 3591 ft 209 kts 308°
2026-05-05 05:26 37.59291 -122.05162 3346 ft 207 kts 307°
2026-05-05 05:26 37.60212 -122.06542 3077 ft 202 kts 308°
2026-05-05 05:26 37.61096 -122.07862 2822 ft 191 kts 307°
2026-05-05 05:27 37.61929 -122.09111 2565 ft 181 kts 307°
2026-05-05 05:27 37.62705 -122.10272 2355 ft 163 kts 307°
2026-05-05 05:27 37.63814 -122.11933 2025 ft 142 kts 306°
2026-05-05 05:28 37.64445 -122.12882 1837 ft 140 kts 307°
2026-05-05 05:28 37.65069 -122.13818 1639 ft 139 kts 307°
2026-05-05 05:28 37.65695 -122.14754 1449 ft 139 kts 307°
2026-05-05 05:28 37.66317 -122.15688 1261 ft 138 kts 307°
2026-05-05 05:29 37.66938 -122.16618 1055 ft 138 kts 307°
2026-05-05 05:29 37.67555 -122.17546 867 ft 138 kts 309°
2026-05-05 05:29 37.68169 -122.18463 679 ft 136 kts 309°
2026-05-05 05:29 37.68777 -122.19377 490 ft 135 kts 309°
2026-05-05 05:30 37.69384 -122.20290 310 ft 136 kts 310°
2026-05-05 05:30 37.69996 -122.21215 103 ft 137 kts 311°
2026-05-05 05:30 37.70593 -122.22096 23 ft 117 kts 309°